Regional Weather Roundup
Issued by NWS

Home | Current Version | Previous Version | Graphics & Text | Print | Product List | Glossary On
Versions: 1 2 3 4 5 6 7 8 9 10 11 12 13 14 15 16 17 18 19 20 21 22 23 24 25 26 27 28 29 30 31 32 33 34 35 36 37 38 39 40 41 42 43 44 45 46 47 48 49 50
000
ASUS43 KMPX 021701
RWRMN
WEATHER ROUNDUP FOR MINNESOTA
NATIONAL WEATHER SERVICE TWIN CITIES/CHANHASSEN MN
1200 PM CDT THU JUL 02 2015


NOTE: "FAIR" INDICATES FEW OR NO CLOUDS BELOW 12,000 FEET WITH NO
SIGNIFICANT WEATHER AND/OR OBSTRUCTIONS TO VISIBILITY. N/A MEANS
CURRENT SKY AND/OR WEATHER CONDITIONS ARE NOT AVAILABLE.

MNZ060>063-068>070-021800-
   Twin Cities Metro

CITY           SKY/WX    TMP DP  RH WIND       PRES   REMARKS
TWIN CITIES    MOSUNNY   73  54  51 SE5       30.03F
ST PAUL        SUNNY     72  53  51 SE3       30.03F
CRYSTAL        SUNNY     76  53  44 CALM      30.02S
BLAINE         MOSUNNY   73  54  49 CALM      30.03F
LAKEVILLE      SUNNY     70  54  56 S3        30.04S
EDEN PRAIRIE   MOSUNNY   73  54  51 S3        30.02F
SOUTH ST PAUL  SUNNY     73  52  47 SE3       30.03S
LAKE ELMO      FAIR      72  54  53 E3        30.04S
$$
MNZ001>005-007-008-013>017-022>024-027-028-021800-
   Northwest Minnesota

CITY           SKY/WX    TMP DP  RH WIND       PRES   REMARKS
BEMIDJI        MOSUNNY   72  56  56 SW10      30.01S
HALLOCK        MOSUNNY   72  63  73 S9        29.93S
ROSEAU         SUNNY     72  61  68 SW9       29.96S
WARROAD        SUNNY     72  61  68 SW8       29.97S
THIEF RVR FALL SUNNY     72  52  49 SW12      29.98F
CROOKSTON      SUNNY     72  57  60 S12       29.98S
FOSSTON        SUNNY     70  54  56 S13       30.00F
DETROIT LAKES  SUNNY     70  54  56 S12       30.03S
MOORHEAD       SUNNY     73  55  53 S12       30.00S
PARK RAPIDS    SUNNY     73  53  49 S10       30.02S
$$
MNZ006-009>011-018-025>026-021800-
   North Central Minnesota

CITY           SKY/WX    TMP DP  RH WIND       PRES   REMARKS
BAUDETTE       SUNNY     73  52  47 SW9G17    29.97S
FLAG ISLAND    MOSUNNY   72  59  64 SW10      29.93F
INTL FALLS     SUNNY     73  61  65 W6        29.97F
WASKISH        MOSUNNY   72  59  64 SW6       30.00S
BIG FORK       SUNNY    N/A N/A N/A SW8       30.01S
LONGVILLE      SUNNY     72  57  60 SW5       30.02F
GRAND RAPIDS   SUNNY     72  55  56 SW3       30.02F
CRANE LAKE     SUNNY     72  61  68 N3        30.00S
COOK           MOSUNNY   72  61  68 W6        30.00F
WALKER         FAIR      71  56  60 SW7       30.02S
$$
MNZ012-019>021-037-021800-
   Northeast Minnesota

CITY           SKY/WX    TMP DP  RH WIND       PRES   REMARKS
DULUTH         MOSUNNY   74  57  55 W9        30.02F
ELY            SUNNY     72  59  64 SW3       30.00S
HIBBING        PTSUNNY   73  58  59 SW8       30.01F
DULUTH HARBOR  SUNNY     75  61  60 SW10      30.01S
TWO HARBORS    MOSUNNY   75  64  69 W6        29.99S
SILVER BAY     PTSUNNY   75  63  64 SE7       29.98S
GRAND MARAIS     N/A     55  50  83 SW8       29.98F
G MARAIS ARPRT SUNNY     72  55  56 S5        30.01F
$$
MNZ029>031-032-039>041-046>048-054>057-064-021800-
   West Central Minnesota

CITY           SKY/WX    TMP DP  RH WIND       PRES   REMARKS
FERGUS FALLS   SUNNY     72  55  56 S13       30.01S
WHEATON        PTSUNNY   68  52  56 SE8       30.02S
MORRIS         MOSUNNY   72  50  46 SE10      30.01S
ALEXANDRIA     SUNNY     69  54  58 S10       30.05S
ELBOW LAKE     FAIR      69  54  58 S13       30.02S
WADENA           N/A     72  55  56 SW9       30.02S
GLENWOOD       SUNNY     70  55  60 S12       30.04S
APPLETON       MOSUNNY   72  48  43 SE7       30.02R
BENSON         SUNNY     72  48  43 S9        30.02S
ORTONVILLE     MOSUNNY   70  46  43 SE8       30.01S
MADISON        MOSUNNY   70  46  43 S7        30.02R
WILLMAR        FAIR      72  54  53 SE8       30.04F
$$
MNZ033>034-036-042>043-049>051-058-059-021800-
   Central Minnesota

CITY           SKY/WX    TMP DP  RH WIND       PRES   REMARKS
ST CLOUD       SUNNY     72  54  53 VRB6      30.03S
SAUK CENTRE    FAIR      69  56  62 S8        30.04S
PAYNESVILLE    SUNNY     68  52  56 E9        30.04F
AITKIN         SUNNY     75  57  53 S5        30.01F
PINE RIVER       N/A     72  55  56 S8        30.05F
BRAINERD       SUNNY     74  54  49 SW9       30.03F
STAPLES        SUNNY     72  54  53 S7        30.03S
LONG PRAIRIE   FAIR      68  55  64 SE6       30.04F
LITTLE FALLS   SUNNY     72  50  46 S7        30.03F
LITCHFIELD     SUNNY     72  55  56 S5        30.04S
BUFFALO        SUNNY     71  53  54 CALM      30.04F
MAPLE LAKE     SUNNY     72  57  60 CALM      30.05S
$$
MNZ037-044-045-052-053-021800-
   East Central Minnesota

CITY           SKY/WX    TMP DP  RH WIND       PRES   REMARKS
PRINCETON      SUNNY     75  55  50 SE5       30.03S
MORA           SUNNY     72  55  56 S6        30.05S
CAMBRIDGE      SUNNY     75  57  53 E6        30.02S
RUSH CITY      SUNNY     73  56  55 CALM      30.04S
MOOSE LAKE     SUNNY     72  63  73 CALM      30.01F
HINCKLEY       FAIR      73  55  53 CALM      30.03F
CLOQUET        SUNNY     73  55  53 W7        30.03S
MCGREGOR       SUNNY     72  55  56 SW6       30.03F
$$
MNZ071>073-080-081-089-090-097-098-021800-
   Southwest Minnesota

CITY           SKY/WX    TMP DP  RH WIND       PRES   REMARKS
MONTEVIDEO     SUNNY     72  50  46 S5        30.03R
GRANITE FALLS  SUNNY     70  48  45 SE7       30.03F
CANBY          PTSUNNY   66  54  64 E7        30.03R
MARSHALL       MOSUNNY   68  48  49 S10       30.01S
REDWOOD FALLS  SUNNY     71  48  43 SE12      30.01F
OLIVIA         SUNNY     68  46  45 SE12      30.02F
PIPESTONE      CLOUDY    66  52  59 S7        30.02S
WINDOM         PTSUNNY   68  52  56 E6        30.03S
WORTHINGTON    CLOUDY    64  52  63 SE8       30.02F
JACKSON        PTSUNNY   68  50  52 SE8       30.04S
TRACY          MOSUNNY   69  51  52 SE8       30.03S
SLAYTON        CLOUDY    67  50  54 SE9       30.04S
$$
MNZ065>067-074>077-082>085-091>093-021800-
   South Central Minnesota

CITY           SKY/WX    TMP DP  RH WIND       PRES   REMARKS
MANKATO        MOSUNNY   70  54  56 SE9       30.04S
NEW ULM        MOSUNNY   70  52  52 SE5       30.03S
ST JAMES       MOSUNNY   72  54  53 E6        30.04S
FAIRMONT       MOSUNNY   68  48  49 SE9       30.03S
GLENCOE        SUNNY     72  56  56 S3        30.03S
FARIBAULT      MOSUNNY   72  54  53 SE6       30.04F
OWATONNA       SUNNY     72  50  46 SE9       30.04S
WASECA         MOSUNNY   70  52  52 E8        30.05S
ALBERT LEA     MOSUNNY   70  50  49 S7        30.04S HAZE
$$
MNZ078>079-086>088-094>096-021800-
   Southeast Minnesota

CITY           SKY/WX    TMP DP  RH WIND       PRES   REMARKS
ROCHESTER      SUNNY     69  54  58 SE5       30.05F
RED WING       SUNNY     73  57  56 CALM      30.02F
DODGE CENTER   SUNNY     70  54  56 E6        30.05S
WINONA         SUNNY     70  52  52 SE3       30.04F
AUSTIN         MOSUNNY   72  52  49 E8        30.04S
PRESTON        SUNNY     66  51  57 SE3       30.05F
$$
ABBREVIATIONS USED IN REMARKS
   TC - TEMPERATURES IN CELSIUS
  WCI - WIND CHILL INDEX
   HX - HEAT INDEX
  VSB - VISIBILITY
$$



USA.gov is the U.S. government's official web portal to all federal, state and local government web resources and services.